[[{"header":{"parameterUnit":"m.s-1","parameterCategory":2,"la1":30.2991,"la2":30.254,"lo1":-89.0895,"lo2":-89.0444,"dy":0.0017,"dx":0.0017,"nx":28,"ny":28,"refTime":"2024-02-26T09:00:00:Z","depth":"0","parameterNumber":2,"parameterNumberName":"U-component_of_CURRENTS"},"data":[0,0,0,0,0,0,0,0,0,0,0,0,0,0,0,0,0,0,0,0,0,0,0,0,0,0,0,0,0,0,0,0,0,0,0,0,0,0,0,0,0,0,0,0,0,0,0,0,0,0,0,0,0,0,0,0,0,0,0.2032,0.2031,0,0.1993,0.1993,0.1992,0.1946,0.1945,0.1945,0.1944,0.1829,0.1827,0.1824,0,0,0,0,0,0,0,0,0,0,0,0,0,0.2022,0.2023,0.2032,0.2031,0.2031,0.1993,0.1993,0.1992,0.1946,0.1945,0.1944,0.1944,0.183,0.1827,0.1824,0,0,0,0,0,0,0,0,0,0,0,0,0,0.201,0.2023,0.2032,0.2003,0.2,0.1994,0.1993,0.1992,0.1946,0.1945,0.1944,0.1943,0.1831,0.1827,0.1824,0.1823,0,0,0.1813,0.1811,0,0,0,0,0,0,0,0,0.201,0.201,0.2008,0.2005,0.2002,0.1974,0.1947,0.1932,0.1947,0.1967,0.1944,0.1943,0.1871,0.1864,0.186,0.1817,0.1812,0.1812,0.181,0.1809,0.1808,0,0,0,0,0,0,0,0.2011,0.2011,0.2016,0.2008,0.2004,0.1978,0.1975,0.1944,0.1924,0.1965,0.1961,0.1958,0.1869,0.1864,0.1857,0.1811,0.1813,0.1809,0.1807,0.1806,0.1658,0.1656,0,0,0,0,0,0,0.202,0.2012,0.2017,0.2015,0.2004,0.1979,0.1976,0.1984,0.1926,0.1916,0.1959,0.1956,0.1871,0.1861,0.1853,0.1854,0.1809,0.1805,0.1803,0.166,0.1658,0.1656,0,0,0,0,0,0,0.202,0.2021,0.2019,0.2012,0.201,0.1981,0.1989,0.1983,0.1974,0.1922,0.1911,0.1954,0.1869,0.1858,0.1808,0.1848,0.1804,0.18,0.1662,0.1659,0.1657,0.1851,0,0,0,0,0,0,0.202,0.2022,0.2028,0.2013,0.2011,0.2016,0.199,0.1983,0.1973,0.1969,0.1915,0.1903,0.1868,0.1813,0.1804,0.1842,0.1798,0.1664,0.1661,0.1658,0.1847,0.1856,0.1863,0,0,0,0,0,0.202,0.2029,0.2029,0.2029,0.2022,0.2017,0.2013,0.1988,0.1974,0.1974,0.1924,0.1905,0.1785,0.181,0.1799,0.1838,0.1666,0.1662,0.1658,0.1844,0.1854,0.1863,0,0,0,0,0,0,0.2026,0.2025,0.2025,0.2033,0.2028,0.2009,0.2003,0.1993,0.1957,0.1946,0.1896,0.1881,0.1859,0.1792,0.1821,0.177,0.1716,0.171,0.1861,0.187,0.1878,0.1951,0.1795,0,0,0,0,0,0.2034,0.2041,0.2037,0.2044,0.2042,0.2027,0.202,0.2009,0.1978,0.1962,0.1929,0.187,0.1836,0.1808,0.1765,0.174,0.1764,0.1742,0.175,0.1759,0.1801,0.1867,0.189,0.1643,0.1643,0.1643,0,0,0.2039,0.2038,0.2043,0.2046,0.2037,0.2037,0.202,0.2015,0.2022,0.1954,0.1945,0.191,0.1833,0.1817,0.1798,0.1768,0.1837,0.1753,0.1763,0.1801,0.1866,0.1892,0.1915,0.164,0.1641,0.1641,0,0,0.2046,0.2053,0.2058,0.2055,0.2049,0.2045,0.2047,0.2037,0.2039,0.2029,0.1985,0.1986,0.1901,0.1894,0.1867,0.1882,0.1887,0.1828,0.1935,0.1999,0.2024,0.2045,0.2127,0.2155,0.1824,0.1824,0.1824,0,0.2048,0.2062,0.2059,0.2057,0.2059,0.205,0.2058,0.2062,0.204,0.2059,0.2035,0.1999,0.1958,0.1969,0.1982,0.1919,0.1947,0.1927,0.2025,0.2046,0.2065,0.2143,0.2171,0.1833,0.1832,0.1831,0.183,0,0.2058,0.2065,0.2066,0.2069,0.2072,0.2077,0.2085,0.2102,0.2111,0.2123,0.2156,0.2127,0.2109,0.2094,0.2056,0.2146,0.2122,0.2052,0.2037,0.2105,0.2178,0.2205,0.1846,0.1843,0.184,0.1838,0,0,0.2063,0.2075,0.2072,0.2082,0.2083,0.2089,0.2119,0.2158,0.2195,0.2212,0.2277,0.2276,0.229,0.226,0.2224,0.2295,0.2479,0.2244,0.2243,0.2391,0.2647,0.2601,0.2625,0.2431,0.2436,0.244,0.2656,0,0.2071,0.2085,0.2089,0.2105,0.2114,0.213,0.2162,0.2197,0.2234,0.2293,0.2332,0.2358,0.2335,0.2347,0.2427,0.2449,0.2551,0.2429,0.25,0.2504,0.2511,0.2654,0.252,0.2698,0.2681,0.2686,0.2689,0,0.2071,0.2086,0.2109,0.2143,0.215,0.2161,0.2231,0.2259,0.2341,0.2377,0.2446,0.2457,0.257,0.2529,0.2696,0.2614,0.2671,0.2705,0.2711,0.2628,0.2507,0.2613,0.2746,0.2639,0.2728,0.2725,0.2722,0,0.2071,0.2096,0.2124,0.2128,0.2164,0.2194,0.2222,0.2289,0.233,0.2436,0.2487,0.2594,0.2653,0.2755,0.2834,0.2776,0.3025,0.2928,0.2958,0.2954,0.2836,0.2814,0.2932,0.3095,0.3095,0.3094,0.3093,0,0.2068,0.2085,0.2127,0.2132,0.2173,0.2204,0.2258,0.2306,0.2391,0.2445,0.2528,0.2599,0.2717,0.2842,0.2909,0.3038,0.3087,0.3049,0.3029,0.2892,0.2873,0.2763,0.2709,0.3102,0.31,0.3099,0.3097,0,0.2046,0.2074,0.2099,0.215,0.2163,0.2191,0.2246,0.2289,0.238,0.2461,0.25,0.2646,0.2807,0.293,0.3106,0.3124,0.3157,0.3269,0.3116,0.3076,0.2957,0.2917,0.2952,0.2877,0.335,0.335,0.3351,0,0.2035,0.2047,0.2092,0.2096,0.2111,0.2154,0.2177,0.2266,0.2308,0.2473,0.2512,0.2702,0.2797,0.3062,0.3165,0.332,0.3196,0.3261,0.3127,0.3005,0.2947,0.2815,0.2739,0.3058,0.3056,0.3054,0.3053,0,0.1997,0.2014,0.2025,0.2045,0.2063,0.209,0.2134,0.2168,0.228,0.2362,0.2481,0.2579,0.2838,0.2936,0.3145,0.3207,0.308,0.323,0.3143,0.2798,0.2626,0.2521,0.2872,0.3038,0.304,0.3041,0.3042,0.3042,0.1943,0.1948,0.1958,0.1974,0.1988,0.2004,0.2007,0.2073,0.2135,0.2234,0.2378,0.2482,0.2675,0.2943,0.3008,0.3009,0.3009,0.291,0.2903,0.2804,0.2639,0.2979,0.3075,0.3077,0.3078,0.3079,0.3081,0,0.1858,0.1874,0.1883,0.1885,0.1868,0.1913,0.1953,0.1953,0.1992,0.2105,0.2196,0.2343,0.2459,0.2612,0.2738,0.2686,0.2566,0.2613,0.239,0.2354,0.2702,0.259,0.2534,0.2534,0.2534,0.2534,0.2534,0.2534,0.1799,0.1786,0.1809,0.1761,0.176,0.1728,0.1735,0.176,0.1818,0.1874,0.1938,0.2044,0.2267,0.242,0.2421,0.2384,0.2216,0.2132,0.2148,0.2364,0.2388,0.2412,0.2294,0.2176,0.2176,0.167,0.1666,0.1663]},{"header":{"parameterUnit":"m.s-1","parameterCategory":2,"la1":30.2991,"la2":30.254,"lo1":-89.0895,"lo2":-89.0444,"dy":0.0017,"dx":0.0017,"nx":28,"ny":28,"refTime":"2024-02-26T09:00:00:Z","depth":"0","parameterNumber":3,"parameterNumberName":"V-component_of_CURRENTS"},"data":[0,0,0,0,0,0,0,0,0,0,0,0,0,0,0,0,0,0,0,0,0,0,0,0,0,0,0,0,0,0,0,0,0,0,0,0,0,0,0,0,0,0,0,0,0,0,0,0,0,0,0,0,0,0,0,0,0,0,0.0839,0.0838,0,0.0734,0.0734,0.0733,0.0705,0.0705,0.0705,0.0705,0.0609,0.0606,0.0604,0,0,0,0,0,0,0,0,0,0,0,0,0,0.088,0.0881,0.0839,0.0837,0.0835,0.0735,0.0734,0.0733,0.0705,0.0705,0.0705,0.0705,0.061,0.0607,0.0604,0,0,0,0,0,0,0,0,0,0,0,0,0,0.0834,0.0881,0.084,0.0804,0.0799,0.0735,0.0734,0.0733,0.0705,0.0705,0.0705,0.0705,0.0611,0.0607,0.0603,0.058,0,0,0.0592,0.059,0,0,0,0,0,0,0,0,0.0837,0.0834,0.0811,0.0806,0.0801,0.0727,0.0712,0.068,0.0705,0.0748,0.0705,0.0705,0.0645,0.0638,0.0628,0.0576,0.0572,0.0591,0.0589,0.0587,0.0586,0,0,0,0,0,0,0,0.0841,0.0837,0.0805,0.0809,0.0803,0.0746,0.0742,0.0706,0.0703,0.0744,0.074,0.0718,0.0643,0.0632,0.0625,0.057,0.0591,0.0588,0.0586,0.0584,0.0467,0.0467,0,0,0,0,0,0,0.0847,0.0841,0.0808,0.0801,0.0811,0.0746,0.0741,0.0756,0.0703,0.0693,0.0718,0.0716,0.0638,0.063,0.0622,0.061,0.0587,0.0584,0.0582,0.0468,0.0467,0.0466,0,0,0,0,0,0,0.0849,0.0847,0.0812,0.081,0.0801,0.0745,0.0762,0.0754,0.0739,0.0682,0.0673,0.071,0.0638,0.0627,0.059,0.0605,0.0582,0.0579,0.0469,0.0468,0.0467,0.0574,0,0,0,0,0,0,0.0851,0.0849,0.0863,0.0813,0.0801,0.0777,0.0761,0.0752,0.0722,0.072,0.0672,0.0664,0.0637,0.0595,0.0586,0.06,0.0576,0.047,0.0469,0.0467,0.0572,0.0577,0.0581,0,0,0,0,0,0.0854,0.0871,0.0866,0.086,0.0825,0.0776,0.0767,0.0729,0.0722,0.0717,0.0685,0.0665,0.0578,0.0592,0.0581,0.0594,0.0471,0.0469,0.0467,0.057,0.0576,0.0581,0,0,0,0,0,0,0.0889,0.0867,0.0861,0.087,0.0827,0.0769,0.0755,0.073,0.0701,0.0701,0.0658,0.0647,0.0619,0.058,0.0596,0.0549,0.0519,0.0515,0.0601,0.0606,0.0611,0.0675,0.0573,0,0,0,0,0,0.0905,0.092,0.0874,0.0878,0.0861,0.0811,0.0786,0.0761,0.0721,0.0709,0.0675,0.0634,0.0602,0.0584,0.0545,0.0522,0.0507,0.0517,0.0522,0.0527,0.0567,0.0552,0.0562,0.046,0.046,0.046,0,0,0.0921,0.0904,0.0915,0.0886,0.0854,0.0835,0.0799,0.0764,0.0763,0.0702,0.0695,0.0649,0.0596,0.0576,0.056,0.0548,0.054,0.0524,0.0529,0.0568,0.0552,0.0562,0.0572,0.0459,0.0459,0.046,0,0,0.0941,0.0945,0.0958,0.0925,0.0873,0.0848,0.084,0.0787,0.0785,0.076,0.0721,0.0695,0.0631,0.0615,0.0594,0.0597,0.0564,0.0562,0.0648,0.0633,0.0643,0.0651,0.0629,0.0635,0.0568,0.0568,0.0568,0,0.0964,0.0971,0.0947,0.0931,0.091,0.0859,0.0855,0.0842,0.0787,0.0802,0.0769,0.0714,0.0663,0.0666,0.0667,0.0616,0.0596,0.0639,0.0646,0.0654,0.0661,0.0636,0.0642,0.0573,0.0573,0.0572,0.0572,0,0.0975,0.0979,0.0974,0.096,0.0939,0.0918,0.0893,0.0897,0.0885,0.0871,0.0872,0.0811,0.0786,0.0753,0.0716,0.0736,0.07,0.0656,0.0649,0.0679,0.0648,0.0652,0.058,0.0578,0.0577,0.0576,0,0,0.103,0.1001,0.0996,0.0997,0.0953,0.094,0.0963,0.0975,0.101,0.0972,0.1013,0.0962,0.0938,0.0913,0.0855,0.0848,0.0863,0.0785,0.0782,0.0796,0.0829,0.0785,0.0784,0.0821,0.0823,0.0824,0.0783,0,0.1046,0.1043,0.1024,0.1026,0.1022,0.1007,0.1039,0.1048,0.1054,0.108,0.1057,0.105,0.0993,0.0979,0.097,0.0885,0.088,0.0879,0.0771,0.0768,0.0753,0.079,0.075,0.0709,0.0786,0.0787,0.0787,0,0.105,0.1051,0.1062,0.1081,0.1083,0.1086,0.1142,0.1161,0.12,0.1209,0.122,0.1184,0.1178,0.1109,0.1044,0.1043,0.0963,0.0899,0.0894,0.0833,0.0733,0.069,0.0713,0.0531,0.0793,0.0792,0.0792,0,0.1072,0.1077,0.1098,0.1089,0.1104,0.1137,0.116,0.1203,0.1244,0.1285,0.1311,0.1297,0.128,0.1206,0.1085,0.1062,0.1004,0.0939,0.0833,0.0827,0.0765,0.0752,0.0635,0.0911,0.0911,0.0911,0.0911,0,0.1077,0.1089,0.1113,0.1109,0.1163,0.117,0.1236,0.127,0.1326,0.1379,0.1371,0.1408,0.1305,0.1254,0.1135,0.1009,0.1039,0.0879,0.0828,0.0794,0.0785,0.06,0.0535,0.091,0.091,0.091,0.0911,0,0.1071,0.1083,0.1103,0.1141,0.1159,0.1194,0.1259,0.1316,0.1372,0.1441,0.1457,0.1486,0.1431,0.1316,0.1186,0.1067,0.0852,0.0886,0.0855,0.0802,0.0528,0.0472,0.0376,0.0316,0.0768,0.0767,0.0766,0,0.1067,0.1075,0.1112,0.1136,0.1146,0.1204,0.1253,0.1322,0.1378,0.149,0.1525,0.1524,0.1533,0.1349,0.115,0.0956,0.0812,0.0767,0.0721,0.0538,0.0436,0.0406,0.0361,0.0664,0.0662,0.0661,0.066,0,0.1063,0.1073,0.1092,0.1135,0.1178,0.1241,0.1311,0.1362,0.1461,0.1537,0.1638,0.1666,0.1528,0.1347,0.109,0.0935,0.0651,0.0731,0.055,0.0375,0.033,0.0238,0.0656,0.0648,0.0649,0.065,0.065,0.0651,0.1068,0.1078,0.1107,0.1145,0.1201,0.1281,0.134,0.1428,0.1536,0.1661,0.1696,0.1748,0.1484,0.1155,0.0951,0.0509,0.0566,0.0334,0.0289,0.0281,0.0209,0.0608,0.0534,0.0534,0.0535,0.0535,0.0536,0,0.1061,0.1079,0.1123,0.1181,0.1239,0.1274,0.1387,0.1465,0.1589,0.1682,0.1772,0.1647,0.1294,0.0945,0.04,0.0106,0.0036,-0.0075,-0.0145,-0.0163,0.018,0.0156,-0.0013,-0.0013,-0.0013,-0.0012,-0.0012,-0.0012,0.1061,0.1088,0.1109,0.1203,0.1251,0.135,0.1416,0.1536,0.1623,0.1724,0.1732,0.1745,0.1456,0.0473,-0.0205,-0.0345,-0.0511,-0.0545,-0.0612,-0.0425,-0.0392,-0.036,-0.0401,-0.0684,-0.0685,-0.0948,-0.0951,-0.0953]}],[{"header":{"parameterUnit":"m.s-1","parameterCategory":2,"la1":30.2991,"la2":30.254,"lo1":-89.0895,"lo2":-89.0444,"dy":0.0017,"dx":0.0017,"nx":28,"ny":28,"refTime":"2024-02-26T09:00:00:Z","depth":"2","parameterNumber":2,"parameterNumberName":"U-component_of_CURRENTS"},"data":[0,0,0,0,0,0,0,0,0,0,0,0,0,0,0,0,0,0,0,0,0,0,0,0,0,0,0,0,0,0,0,0,0,0,0,0,0,0,0,0,0,0,0,0,0,0,0,0,0,0,0,0,0,0,0,0,0,0,0.1714,0.1714,0,0.1693,0.1692,0.1691,0.1667,0.1667,0.1667,0.1667,0.1668,0.1668,0.1668,0,0,0,0,0,0,0,0,0,0,0,0,0,0.1688,0.1688,0.1714,0.1714,0.1715,0.1693,0.1692,0.1691,0.1666,0.1667,0.1667,0.1667,0.1668,0.1668,0.1668,0,0,0,0,0,0,0,0,0,0,0,0,0,0.1681,0.1688,0.1714,0.1704,0.1703,0.1693,0.1692,0.1691,0.1666,0.1667,0.1667,0.1667,0.1668,0.1668,0.1668,0.1662,0,0,0.1667,0.1667,0,0,0,0,0,0,0,0,0.1681,0.1681,0.1705,0.1705,0.1704,0.1688,0.1683,0.1684,0.1666,0.1674,0.1667,0.1667,0.1681,0.1679,0.1666,0.1662,0.1662,0.1667,0.1667,0.1667,0.1667,0,0,0,0,0,0,0,0.1682,0.1682,0.17,0.1706,0.1705,0.1686,0.1684,0.1683,0.1672,0.1674,0.1673,0.168,0.168,0.1666,0.1666,0.1662,0.1667,0.1667,0.1667,0.1667,0.1601,0.1599,0,0,0,0,0,0,0.1699,0.1682,0.17,0.17,0.17,0.1686,0.1685,0.1688,0.1672,0.1671,0.168,0.1679,0.1666,0.1666,0.1666,0.1704,0.1667,0.1667,0.1667,0.1602,0.16,0.1598,0,0,0,0,0,0,0.1698,0.17,0.1701,0.1695,0.1695,0.1688,0.169,0.1687,0.1682,0.1677,0.1676,0.168,0.1667,0.1666,0.1664,0.1702,0.1667,0.1667,0.1604,0.1602,0.1599,0.175,0,0,0,0,0,0,0.1697,0.17,0.1719,0.1696,0.1696,0.1686,0.1691,0.1687,0.1689,0.1687,0.1677,0.1676,0.1667,0.1664,0.1664,0.1701,0.1667,0.1606,0.1603,0.16,0.1747,0.1753,0.1758,0,0,0,0,0,0.1696,0.1689,0.172,0.1723,0.1719,0.1686,0.1682,0.1674,0.1689,0.1673,0.1675,0.1677,0.1643,0.1664,0.1663,0.1702,0.1608,0.1604,0.16,0.1745,0.1752,0.1758,0,0,0,0,0,0,0.169,0.1687,0.1719,0.1718,0.1713,0.1684,0.1677,0.1681,0.1669,0.1677,0.1675,0.1673,0.1689,0.1647,0.167,0.1658,0.1618,0.1614,0.1728,0.1734,0.174,0.1789,0.1666,0,0,0,0,0,0.1705,0.1702,0.1702,0.1709,0.1705,0.1703,0.1697,0.1691,0.1678,0.1673,0.1684,0.1671,0.1668,0.1665,0.1651,0.1653,0.1648,0.166,0.1666,0.1672,0.1702,0.1712,0.1724,0.1586,0.1586,0.1586,0,0,0.1699,0.1711,0.1705,0.1709,0.1708,0.1687,0.1696,0.168,0.1697,0.1677,0.171,0.1706,0.167,0.1681,0.168,0.1658,0.1703,0.1667,0.1674,0.1701,0.171,0.1724,0.1737,0.1584,0.1584,0.1585,0,0,0.1686,0.1704,0.1699,0.1681,0.1689,0.1682,0.1683,0.1676,0.171,0.1735,0.1729,0.1755,0.1737,0.1741,0.1734,0.175,0.1741,0.1717,0.1794,0.1804,0.1818,0.183,0.185,0.1863,0.1712,0.1712,0.1713,0,0.1686,0.1683,0.1691,0.1676,0.1666,0.1681,0.1662,0.169,0.1698,0.1741,0.1756,0.1784,0.1779,0.1802,0.1819,0.1779,0.1771,0.1793,0.1822,0.1833,0.1843,0.186,0.1873,0.1719,0.1718,0.1718,0.1717,0,0.1655,0.1654,0.1638,0.1635,0.1633,0.1599,0.164,0.1686,0.1747,0.1775,0.1854,0.1874,0.1889,0.1888,0.1879,0.193,0.1899,0.1846,0.1833,0.1869,0.1881,0.1892,0.1729,0.1727,0.1724,0.1723,0,0,0.1624,0.1617,0.1616,0.163,0.1598,0.1605,0.1653,0.1702,0.176,0.1832,0.1907,0.1968,0.2003,0.1995,0.1992,0.2022,0.2114,0.1979,0.1976,0.2049,0.2145,0.1942,0.1934,0.2068,0.207,0.2072,0.2131,0,0.1594,0.1577,0.1582,0.1575,0.1553,0.1593,0.1643,0.1705,0.1773,0.1849,0.1939,0.1994,0.2031,0.2064,0.2109,0.2107,0.2145,0.2104,0.2055,0.2054,0.1912,0.194,0.1844,0.1871,0.2141,0.2143,0.2144,0,0.1557,0.1547,0.153,0.1576,0.158,0.1602,0.1698,0.174,0.1835,0.1894,0.1976,0.2026,0.2133,0.2134,0.2228,0.2196,0.2199,0.22,0.22,0.1971,0.187,0.1869,0.188,0.2161,0.216,0.2159,0.2157,0,0.1539,0.1532,0.1537,0.1521,0.1552,0.1626,0.168,0.1762,0.1807,0.1921,0.1945,0.2074,0.2111,0.2197,0.2214,0.2244,0.2252,0.2277,0.2103,0.209,0.1978,0.1947,0.233,0.233,0.2329,0.2329,0.2329,0,0.1487,0.1494,0.1549,0.1533,0.1583,0.1636,0.1704,0.1781,0.1844,0.1859,0.1972,0.1984,0.2123,0.2135,0.2208,0.2158,0.2248,0.2138,0.209,0.2017,0.1992,0.2206,0.2191,0.2331,0.2331,0.233,0.233,0,0.1431,0.1468,0.1453,0.1514,0.1563,0.1597,0.1691,0.1721,0.1802,0.182,0.1863,0.1914,0.195,0.2022,0.2086,0.2078,0.2096,0.203,0.1929,0.1866,0.1964,0.1956,0.1962,0.1955,0.1949,0.1945,0.1941,0,0.1361,0.1349,0.1411,0.1428,0.1461,0.153,0.1569,0.1681,0.1689,0.1756,0.1745,0.1778,0.1754,0.1742,0.1747,0.1801,0.1893,0.1699,0.1745,0.1974,0.1928,0.1928,0.1927,0.1688,0.1683,0.1678,0.1674,0,0.1177,0.1235,0.1241,0.1309,0.1369,0.1385,0.147,0.1464,0.1567,0.1584,0.1566,0.1566,0.1523,0.1492,0.1466,0.1483,0.1708,0.1599,0.1867,0.1743,0.1705,0.1662,0.1673,0.1633,0.1637,0.164,0.1642,0.1644,0.1054,0.1002,0.1088,0.1155,0.1248,0.1277,0.1269,0.1308,0.1314,0.1339,0.1363,0.1352,0.1354,0.1281,0.1245,0.1242,0.1363,0.1411,0.1432,0.1457,0.1361,0.1308,0.1148,0.115,0.1151,0.1152,0.1153,0,0.0912,0.092,0.0931,0.1034,0.1135,0.1238,0.1234,0.117,0.1143,0.1192,0.1187,0.1091,0.1063,0.1116,0.106,0.1026,0.1079,0.1012,0.115,0.1188,0.1223,0.1123,0.0844,0.0843,0.0843,0.0842,0,0,0.0858,0.0819,0.0821,0.0937,0.1058,0.1108,0.11,0.0985,0.0984,0.0911,0.0964,0.1029,0.11,0.0996,0.0949,0.0928,0.1056,0.0872,0.1116,0.1319,0.1354,0.1436,0.1319,0,0,0,0,0]},{"header":{"parameterUnit":"m.s-1","parameterCategory":2,"la1":30.2991,"la2":30.254,"lo1":-89.0895,"lo2":-89.0444,"dy":0.0017,"dx":0.0017,"nx":28,"ny":28,"refTime":"2024-02-26T09:00:00:Z","depth":"2","parameterNumber":3,"parameterNumberName":"V-component_of_CURRENTS"},"data":[0,0,0,0,0,0,0,0,0,0,0,0,0,0,0,0,0,0,0,0,0,0,0,0,0,0,0,0,0,0,0,0,0,0,0,0,0,0,0,0,0,0,0,0,0,0,0,0,0,0,0,0,0,0,0,0,0,0,0.0146,0.0147,0,0.0123,0.0122,0.0121,0.0121,0.0122,0.0123,0.0124,0.0206,0.0207,0.0208,0,0,0,0,0,0,0,0,0,0,0,0,0,0.012,0.012,0.0146,0.0147,0.0147,0.0123,0.0122,0.0121,0.0121,0.0122,0.0123,0.0124,0.0206,0.0207,0.0208,0,0,0,0,0,0,0,0,0,0,0,0,0,0.0109,0.012,0.0146,0.0151,0.0152,0.0124,0.0122,0.0121,0.012,0.0122,0.0124,0.0125,0.0205,0.0207,0.0209,0.0186,0,0,0.0214,0.0215,0,0,0,0,0,0,0,0,0.011,0.0109,0.015,0.0151,0.0152,0.0135,0.0144,0.0151,0.012,0.0123,0.0124,0.0126,0.0197,0.0199,0.0177,0.019,0.0193,0.0214,0.0215,0.0216,0.0216,0,0,0,0,0,0,0,0.0111,0.011,0.0128,0.015,0.0151,0.0131,0.0131,0.0143,0.0146,0.0123,0.0125,0.0136,0.0197,0.0175,0.0179,0.0195,0.0214,0.0216,0.0217,0.0217,0.0247,0.0247,0,0,0,0,0,0,0.0134,0.0111,0.0129,0.0128,0.0145,0.0131,0.013,0.0131,0.0143,0.0148,0.0135,0.0136,0.0171,0.0177,0.0182,0.0232,0.0216,0.0217,0.0218,0.0247,0.0247,0.0247,0,0,0,0,0,0,0.0133,0.0135,0.013,0.0127,0.0126,0.0131,0.0131,0.013,0.0128,0.0153,0.0159,0.0138,0.0173,0.018,0.0232,0.0233,0.0218,0.022,0.0248,0.0247,0.0247,0.0285,0,0,0,0,0,0,0.0132,0.0134,0.0154,0.0128,0.0128,0.0108,0.013,0.0128,0.0136,0.0137,0.0157,0.0165,0.0174,0.023,0.0234,0.0235,0.0221,0.0248,0.0248,0.0247,0.0284,0.0286,0.0287,0,0,0,0,0,0.0131,0.0127,0.0154,0.0158,0.015,0.0108,0.0103,0.0107,0.0135,0.0114,0.0166,0.0165,0.0228,0.0232,0.0237,0.0239,0.0248,0.0248,0.0247,0.0283,0.0285,0.0287,0,0,0,0,0,0,0.0143,0.0127,0.0156,0.0157,0.0143,0.0111,0.0107,0.0113,0.013,0.015,0.0182,0.0192,0.0228,0.0228,0.0231,0.0241,0.0229,0.023,0.0255,0.0257,0.0259,0.0272,0.0223,0,0,0,0,0,0.0156,0.0153,0.0135,0.0151,0.0135,0.0129,0.0123,0.0117,0.0127,0.0134,0.0172,0.0202,0.022,0.024,0.025,0.0271,0.0234,0.0265,0.0267,0.0269,0.028,0.0208,0.0204,0.0245,0.0245,0.0245,0,0,0.0162,0.0172,0.0166,0.0155,0.0147,0.0115,0.0126,0.0104,0.0122,0.0144,0.0203,0.0214,0.0227,0.025,0.0263,0.0259,0.0238,0.0268,0.027,0.028,0.0207,0.0203,0.0199,0.0245,0.0245,0.0245,0,0,0.0175,0.0182,0.0175,0.0152,0.0146,0.0119,0.0118,0.0099,0.0133,0.0177,0.0198,0.0222,0.0265,0.0267,0.0274,0.0289,0.0248,0.0282,0.031,0.024,0.0236,0.0232,0.0182,0.0174,0.0285,0.0285,0.0285,0,0.0166,0.0186,0.0168,0.0157,0.0144,0.0124,0.0097,0.0114,0.0137,0.0169,0.0206,0.0254,0.027,0.0284,0.0299,0.0294,0.0253,0.0307,0.0242,0.0237,0.0233,0.0183,0.0173,0.0287,0.0287,0.0287,0.0287,0,0.0172,0.0182,0.0168,0.0149,0.0131,0.009,0.0099,0.0125,0.0172,0.0185,0.0241,0.0275,0.0304,0.0297,0.0321,0.0293,0.0275,0.025,0.0239,0.0231,0.0179,0.0168,0.029,0.0289,0.0288,0.0288,0,0,0.0112,0.0148,0.015,0.0166,0.0111,0.01,0.0127,0.0126,0.0156,0.0211,0.0253,0.0303,0.032,0.0331,0.0342,0.0297,0.0242,0.0277,0.0272,0.0233,0.0097,0.0022,0.0003,0.02,0.0199,0.0197,0.0074,0,0.0099,0.0093,0.0124,0.0123,0.0085,0.0098,0.0126,0.0143,0.0171,0.0208,0.0253,0.0293,0.0334,0.0362,0.0326,0.027,0.0214,0.0279,0.0107,0.0102,0.004,-0.0013,0.0059,-0.005,0.0063,0.0061,0.006,0,0.0093,0.0075,0.0054,0.0112,0.0104,0.0127,0.0147,0.0173,0.0196,0.0225,0.0257,0.0293,0.0312,0.0321,0.0237,0.0279,0.02,0.0137,0.013,0.0042,0.0006,-0.0026,-0.0075,0.0041,0.0042,0.0044,0.0045,0,0.005,0.0067,0.0057,0.0048,0.0058,0.0127,0.0167,0.018,0.0207,0.0242,0.0237,0.0269,0.0263,0.0221,0.015,0.0197,-0.0015,0.0026,-0.0126,-0.0131,-0.0113,-0.0115,-0.0093,-0.0093,-0.0093,-0.0092,-0.0092,0,0.0013,0.0029,0.0062,0.0043,0.0073,0.0122,0.0163,0.021,0.0229,0.023,0.0264,0.0258,0.0225,0.0134,0.0106,-0.0054,-0.0049,-0.0133,-0.018,-0.0098,-0.0098,-0.0048,-0.0041,-0.0097,-0.0096,-0.0095,-0.0094,0,-0.0011,-0.0002,-0.002,0.001,0.0053,0.008,0.0187,0.0209,0.0222,0.0225,0.0253,0.0207,0.0118,0.0036,-0.011,-0.0163,-0.0271,-0.0357,-0.0251,-0.0283,-0.031,-0.03,-0.0462,-0.0466,-0.0469,-0.0472,-0.0474,0,-0.0036,-0.0063,-0.0057,-0.0039,0.0007,0.0066,0.0113,0.0188,0.0216,0.0207,0.0219,0.0117,0.0079,-0.0182,-0.0289,-0.0404,-0.0426,-0.0493,-0.0385,-0.0325,-0.0354,-0.0338,-0.0323,-0.0334,-0.0335,-0.0335,-0.0336,0,-0.013,-0.0119,-0.0134,-0.0079,-0.0006,0.0014,0.0135,0.0143,0.0211,0.0228,0.0231,0.0211,-0.0022,-0.0134,-0.0388,-0.0442,-0.0435,-0.0516,-0.0523,-0.0263,-0.0218,-0.0242,-0.0229,-0.0343,-0.0343,-0.0342,-0.0342,-0.0341,-0.0195,-0.022,-0.0179,-0.0117,-0.002,0.0045,0.0082,0.0174,0.0227,0.0294,0.0247,0.0242,0.0036,-0.0206,-0.0371,-0.0527,-0.051,-0.053,-0.0521,-0.0512,-0.0487,-0.0453,-0.0615,-0.0616,-0.0616,-0.0617,-0.0618,0,-0.0276,-0.023,-0.0185,-0.0092,0.0056,0.011,0.0163,0.0193,0.0287,0.0334,0.0369,0.023,0.0076,-0.0118,-0.0325,-0.0498,-0.0433,-0.0554,-0.0412,-0.0406,-0.0401,-0.0363,-0.0461,-0.0461,-0.0461,-0.0461,0,0,-0.0276,-0.0259,-0.0225,-0.0017,0.011,0.0233,0.026,0.0296,0.0351,0.0387,0.0429,0.038,0.0159,0.0019,-0.0211,-0.0314,-0.0308,-0.0331,-0.0439,-0.0238,-0.0229,-0.0377,-0.0314,0,0,0,0,0]}],[{"header":{"parameterUnit":"m.s-1","parameterCategory":2,"la1":30.2991,"la2":30.254,"lo1":-89.0895,"lo2":-89.0444,"dy":0.0017,"dx":0.0017,"nx":28,"ny":28,"refTime":"2024-02-26T09:00:00:Z","depth":"4","parameterNumber":2,"parameterNumberName":"U-component_of_CURRENTS"},"data":[0,0,0,0,0,0,0,0,0,0,0,0,0,0,0,0,0,0,0,0,0,0,0,0,0,0,0,0,0,0,0,0,0,0,0,0,0,0,0,0,0,0,0,0,0,0,0,0,0,0,0,0,0,0,0,0,0,0,0.0397,0.0397,0,0.0413,0.0413,0.0413,0.0441,0.0441,0.0442,0.0442,0.0467,0.0468,0.0468,0,0,0,0,0,0,0,0,0,0,0,0,0,0.0366,0.0367,0.0397,0.0397,0.0397,0.0413,0.0413,0.0413,0.0441,0.0442,0.0442,0.0442,0.0467,0.0468,0.0468,0,0,0,0,0,0,0,0,0,0,0,0,0,0.0382,0.0367,0.0396,0.0411,0.0413,0.0413,0.0413,0.0414,0.0441,0.0442,0.0442,0.0443,0.0467,0.0468,0.0468,0.0459,0,0,0.0469,0.047,0,0,0,0,0,0,0,0,0.0381,0.0383,0.0409,0.041,0.0412,0.0424,0.0412,0.0429,0.0441,0.0432,0.0442,0.0443,0.0452,0.0454,0.0458,0.046,0.0461,0.0469,0.047,0.047,0.047,0,0,0,0,0,0,0,0.038,0.0383,0.0404,0.0409,0.0411,0.0409,0.0413,0.0415,0.044,0.0432,0.0434,0.0434,0.0454,0.0457,0.0458,0.0462,0.0469,0.047,0.047,0.047,0.0467,0.0466,0,0,0,0,0,0,0.0376,0.0382,0.0404,0.0405,0.0396,0.0409,0.0413,0.0421,0.044,0.0443,0.0433,0.0435,0.0456,0.0458,0.0459,0.0427,0.047,0.047,0.0471,0.0467,0.0467,0.0466,0,0,0,0,0,0,0.0375,0.0378,0.0403,0.0392,0.0395,0.0409,0.0418,0.0421,0.0441,0.044,0.0443,0.0452,0.0457,0.0459,0.0455,0.0429,0.0471,0.0471,0.0467,0.0467,0.0466,0.0377,0,0,0,0,0,0,0.0375,0.0378,0.0399,0.0392,0.0395,0.0421,0.0417,0.0421,0.0438,0.0441,0.0456,0.0458,0.0457,0.0454,0.0455,0.0431,0.0471,0.0468,0.0467,0.0467,0.0381,0.0374,0.0368,0,0,0,0,0,0.0374,0.0401,0.04,0.0403,0.0418,0.0422,0.0424,0.0436,0.0438,0.0455,0.0444,0.0459,0.0451,0.0454,0.0455,0.043,0.0468,0.0467,0.0467,0.0384,0.0375,0.0368,0,0,0,0,0,0,0.0399,0.0405,0.0405,0.0433,0.0433,0.0426,0.0446,0.0444,0.045,0.0455,0.0449,0.045,0.0436,0.0454,0.0457,0.0431,0.0465,0.0464,0.0401,0.0393,0.0387,0.0389,0.0472,0,0,0,0,0,0.0411,0.0431,0.0429,0.0448,0.0454,0.045,0.0458,0.046,0.0455,0.0461,0.0452,0.0449,0.0432,0.0431,0.043,0.0415,0.044,0.0405,0.0399,0.0393,0.0398,0.0386,0.0378,0.0463,0.0463,0.0463,0,0,0.0422,0.0429,0.044,0.0454,0.0457,0.0461,0.0458,0.0473,0.0462,0.0461,0.0446,0.0429,0.0426,0.0399,0.0396,0.0411,0.0387,0.0392,0.0386,0.0395,0.0384,0.0375,0.0368,0.0463,0.0463,0.0463,0,0,0.043,0.0463,0.0471,0.0479,0.0486,0.0487,0.0493,0.0484,0.0476,0.0451,0.0437,0.04,0.0393,0.0362,0.0351,0.0316,0.0354,0.0327,0.0289,0.0276,0.0268,0.0262,0.03,0.0298,0.0321,0.0321,0.0321,0,0.0438,0.0451,0.0473,0.0478,0.0486,0.0497,0.0498,0.0491,0.0473,0.0457,0.0445,0.0378,0.0368,0.0313,0.0288,0.0297,0.0321,0.0309,0.0265,0.0259,0.0254,0.0294,0.0293,0.0317,0.0317,0.0318,0.0318,0,0.0438,0.0458,0.0466,0.0475,0.0491,0.0501,0.0494,0.05,0.0481,0.045,0.039,0.0337,0.0299,0.0276,0.0264,0.0215,0.0257,0.0255,0.0277,0.0239,0.0286,0.0286,0.031,0.0312,0.0313,0.0314,0,0,0.0413,0.0457,0.0454,0.0469,0.0494,0.0504,0.0506,0.0497,0.05,0.0427,0.0394,0.0295,0.0256,0.024,0.0202,0.0169,0.014,0.0192,0.0193,0.022,0.0154,0.0212,0.0218,0.0127,0.0126,0.0125,0.0207,0,0.0395,0.0412,0.0433,0.0452,0.047,0.05,0.0504,0.0502,0.0486,0.0464,0.0366,0.0323,0.0244,0.022,0.0159,0.0152,0.0134,0.0121,0.0198,0.0201,0.0246,0.0217,0.0122,0.0207,0.0207,0.0207,0.0207,0,0.0372,0.0394,0.0413,0.0462,0.0471,0.0487,0.0528,0.0525,0.0509,0.0489,0.0408,0.036,0.0264,0.0225,0.0144,0.0143,0.0145,0.0135,0.0138,0.0223,0.0258,0.0252,0.0208,0.0207,0.0207,0.0207,0.0207,0,0.0344,0.0375,0.0398,0.0413,0.0469,0.0489,0.0512,0.0528,0.0533,0.0508,0.0516,0.0389,0.0355,0.0279,0.0235,0.0196,0.0205,0.0156,0.0214,0.0221,0.0184,0.019,0.0133,0.0133,0.0133,0.0133,0.0132,0,0.0318,0.0337,0.0395,0.0409,0.0444,0.0484,0.0515,0.0533,0.0554,0.0552,0.0511,0.0486,0.037,0.0354,0.0282,0.0261,0.0241,0.0214,0.0234,0.015,0.0151,0.0185,0.019,0.0136,0.0135,0.0135,0.0134,0,0.0286,0.0321,0.0355,0.0414,0.0435,0.0458,0.0521,0.0542,0.0585,0.0592,0.0586,0.0575,0.0544,0.0485,0.0424,0.0362,0.0323,0.0344,0.0318,0.0336,0.0335,0.0334,0.0371,0.0373,0.0375,0.0377,0.0379,0,0.0275,0.0292,0.0349,0.0368,0.0397,0.0444,0.0476,0.0532,0.0549,0.0621,0.061,0.0647,0.0617,0.0591,0.0521,0.046,0.0438,0.0449,0.0303,0.0337,0.0354,0.035,0.0347,0.0382,0.0382,0.0383,0.0384,0,0.0256,0.0277,0.0302,0.0341,0.0375,0.0413,0.0457,0.0481,0.0541,0.0592,0.0624,0.0629,0.065,0.0585,0.0613,0.0533,0.043,0.0468,0.046,0.0323,0.0351,0.0365,0.0359,0.0391,0.039,0.0389,0.0389,0,0.0235,0.0246,0.0278,0.0311,0.0348,0.0373,0.0404,0.0447,0.0488,0.0571,0.0575,0.0615,0.064,0.0631,0.061,0.0593,0.0524,0.0461,0.0452,0.0444,0.0424,0.0468,0.0563,0,0,0,0,0,0.0212,0.0226,0.025,0.0284,0.0316,0.0341,0.039,0.0425,0.0491,0.0502,0.0545,0.0554,0.0572,0.059,0.0572,0.0607,0.0513,0.0584,0.0433,0.0431,0.0423,0.0389,0,0,0,0,0,0,0.0198,0.0217,0.0238,0.0259,0.0278,0.0312,0.0343,0.0385,0.0398,0.0466,0.0472,0.0528,0.0539,0.0572,0.0563,0.0568,0.0463,0.0611,0.061,0.0436,0.0428,0.0421,0.0384,0,0,0,0,0]},{"header":{"parameterUnit":"m.s-1","parameterCategory":2,"la1":30.2991,"la2":30.254,"lo1":-89.0895,"lo2":-89.0444,"dy":0.0017,"dx":0.0017,"nx":28,"ny":28,"refTime":"2024-02-26T09:00:00:Z","depth":"4","parameterNumber":3,"parameterNumberName":"V-component_of_CURRENTS"},"data":[0,0,0,0,0,0,0,0,0,0,0,0,0,0,0,0,0,0,0,0,0,0,0,0,0,0,0,0,0,0,0,0,0,0,0,0,0,0,0,0,0,0,0,0,0,0,0,0,0,0,0,0,0,0,0,0,0,0,-0.0139,-0.014,0,-0.0258,-0.026,-0.0262,-0.0398,-0.04,-0.0401,-0.0403,-0.0481,-0.0481,-0.0482,0,0,0,0,0,0,0,0,0,0,0,0,0,-0.0113,-0.0113,-0.0139,-0.014,-0.0141,-0.0258,-0.026,-0.0262,-0.0398,-0.04,-0.0402,-0.0403,-0.048,-0.0481,-0.0482,0,0,0,0,0,0,0,0,0,0,0,0,0,-0.0173,-0.0113,-0.0139,-0.0218,-0.0226,-0.0257,-0.026,-0.0263,-0.0398,-0.04,-0.0402,-0.0404,-0.048,-0.0481,-0.0482,-0.0445,0,0,-0.0485,-0.0486,0,0,0,0,0,0,0,0,-0.017,-0.0175,-0.0206,-0.0213,-0.0221,-0.031,-0.0279,-0.032,-0.0397,-0.0339,-0.0403,-0.0405,-0.0414,-0.0421,-0.0448,-0.0449,-0.0452,-0.0485,-0.0486,-0.0487,-0.0487,0,0,0,0,0,0,0,-0.0165,-0.0171,-0.0193,-0.0206,-0.0216,-0.0276,-0.0287,-0.0289,-0.0367,-0.0345,-0.0353,-0.0355,-0.0419,-0.0446,-0.045,-0.0453,-0.0485,-0.0486,-0.0487,-0.0487,-0.0609,-0.0611,0,0,0,0,0,0,-0.0131,-0.0166,-0.0189,-0.0196,-0.0193,-0.0274,-0.0286,-0.0285,-0.0368,-0.0382,-0.0353,-0.0361,-0.0444,-0.0449,-0.0453,-0.0551,-0.0487,-0.0488,-0.0488,-0.0606,-0.0609,-0.0612,0,0,0,0,0,0,-0.0129,-0.0131,-0.0184,-0.0179,-0.019,-0.027,-0.0269,-0.0286,-0.0362,-0.0374,-0.0389,-0.0417,-0.0446,-0.0452,-0.052,-0.0549,-0.0488,-0.0489,-0.0603,-0.0607,-0.0611,-0.0657,0,0,0,0,0,0,-0.0128,-0.013,-0.014,-0.0176,-0.0188,-0.0232,-0.0266,-0.0286,-0.0354,-0.0367,-0.0431,-0.0439,-0.0448,-0.0519,-0.0521,-0.055,-0.049,-0.06,-0.0605,-0.061,-0.0652,-0.0662,-0.067,0,0,0,0,0,-0.0127,-0.0126,-0.0139,-0.0143,-0.0191,-0.0232,-0.0246,-0.0315,-0.0355,-0.0393,-0.0455,-0.044,-0.0551,-0.0522,-0.0524,-0.0553,-0.0598,-0.0604,-0.0609,-0.0648,-0.066,-0.067,0,0,0,0,0,0,-0.0121,-0.014,-0.0156,-0.0162,-0.0204,-0.0254,-0.0294,-0.0335,-0.0415,-0.0445,-0.0467,-0.0479,-0.0553,-0.055,-0.0517,-0.0608,-0.0573,-0.0579,-0.0602,-0.0613,-0.0622,-0.0594,-0.0491,0,0,0,0,0,-0.0115,-0.0128,-0.0155,-0.0167,-0.0188,-0.0249,-0.0282,-0.033,-0.0388,-0.043,-0.0479,-0.053,-0.0568,-0.0591,-0.0627,-0.0662,-0.0641,-0.0688,-0.0697,-0.0704,-0.0687,-0.0719,-0.0728,-0.0631,-0.0631,-0.0631,0,0,-0.0119,-0.0128,-0.0139,-0.0168,-0.0211,-0.0246,-0.0279,-0.0342,-0.0392,-0.0418,-0.0524,-0.0566,-0.059,-0.0651,-0.0681,-0.0656,-0.0718,-0.0712,-0.0717,-0.0696,-0.0726,-0.0735,-0.0743,-0.0635,-0.0635,-0.0634,0,0,-0.0127,-0.014,-0.0161,-0.0194,-0.025,-0.0276,-0.0299,-0.0378,-0.0443,-0.0526,-0.0567,-0.0636,-0.0696,-0.0725,-0.074,-0.0815,-0.0772,-0.083,-0.0841,-0.0873,-0.088,-0.0886,-0.0849,-0.0851,-0.0826,-0.0826,-0.0826,0,-0.014,-0.0148,-0.0177,-0.0207,-0.0234,-0.029,-0.0326,-0.0387,-0.0488,-0.0529,-0.0573,-0.0691,-0.0729,-0.0771,-0.0815,-0.0832,-0.0818,-0.0793,-0.0881,-0.0887,-0.0892,-0.0853,-0.0855,-0.0829,-0.0829,-0.0829,-0.0828,0,-0.0163,-0.018,-0.0198,-0.0242,-0.0279,-0.032,-0.0382,-0.0446,-0.0523,-0.058,-0.0682,-0.0751,-0.0805,-0.0843,-0.0853,-0.0907,-0.0872,-0.0893,-0.0843,-0.0904,-0.0859,-0.086,-0.0833,-0.0832,-0.0831,-0.0831,0,0,-0.0169,-0.0205,-0.0219,-0.0232,-0.0302,-0.0326,-0.0399,-0.0463,-0.0494,-0.0629,-0.0677,-0.0795,-0.0833,-0.0853,-0.0883,-0.0922,-0.096,-0.0924,-0.0924,-0.0864,-0.0979,-0.0872,-0.0861,-0.0999,-0.1,-0.1001,-0.0922,0,-0.0187,-0.0215,-0.0243,-0.0283,-0.0299,-0.0356,-0.0398,-0.047,-0.0539,-0.06,-0.0701,-0.0765,-0.0834,-0.0857,-0.0916,-0.0945,-0.0969,-0.0976,-0.0946,-0.0943,-0.0825,-0.0863,-0.1005,-0.0923,-0.0923,-0.0923,-0.0923,0,-0.0205,-0.0214,-0.0249,-0.0266,-0.0283,-0.0323,-0.0369,-0.0423,-0.0505,-0.0563,-0.0648,-0.0705,-0.0785,-0.0841,-0.0921,-0.092,-0.0953,-0.0981,-0.0979,-0.0858,-0.0839,-0.0858,-0.0924,-0.0924,-0.0924,-0.0924,-0.0924,0,-0.017,-0.0214,-0.023,-0.0249,-0.0288,-0.0325,-0.036,-0.0427,-0.0457,-0.054,-0.0544,-0.0658,-0.0692,-0.0786,-0.084,-0.0891,-0.0887,-0.0964,-0.0888,-0.0878,-0.0974,-0.0968,-0.1018,-0.1018,-0.1018,-0.1018,-0.1018,0,-0.016,-0.0173,-0.022,-0.0229,-0.0242,-0.0303,-0.0326,-0.0368,-0.0422,-0.0424,-0.0527,-0.0517,-0.0687,-0.0699,-0.0789,-0.0798,-0.0846,-0.0873,-0.086,-0.0993,-0.0991,-0.0972,-0.0967,-0.1015,-0.1016,-0.1016,-0.1017,0,-0.0127,-0.0155,-0.0159,-0.0206,-0.0223,-0.0246,-0.0298,-0.0304,-0.0352,-0.0347,-0.0368,-0.0419,-0.044,-0.0528,-0.0627,-0.069,-0.0735,-0.0721,-0.077,-0.0764,-0.0723,-0.0722,-0.0671,-0.0667,-0.0664,-0.0661,-0.0658,0,-0.0116,-0.0118,-0.0135,-0.0138,-0.0172,-0.021,-0.0222,-0.0281,-0.0275,-0.0265,-0.0242,-0.0249,-0.0283,-0.0305,-0.0432,-0.0534,-0.0574,-0.0578,-0.0757,-0.0698,-0.0692,-0.0697,-0.0702,-0.0652,-0.0652,-0.0651,-0.065,0,-0.0096,-0.0103,-0.0105,-0.01,-0.012,-0.0117,-0.0142,-0.0127,-0.0163,-0.0167,-0.0126,-0.0163,-0.0145,-0.0253,-0.0279,-0.0382,-0.0584,-0.0543,-0.0556,-0.0724,-0.0675,-0.0673,-0.0682,-0.0637,-0.0639,-0.064,-0.0641,0,-0.0091,-0.008,-0.0083,-0.0082,-0.0078,-0.0064,-0.0068,-0.0063,-0.0068,-0.0061,-0.0027,-0.0056,-0.0088,-0.0163,-0.0199,-0.0264,-0.0358,-0.0442,-0.0462,-0.0477,-0.0466,-0.0378,-0.0223,0,0,0,0,0,-0.0101,-0.0092,-0.0073,-0.0067,-0.0048,-0.0056,-0.0031,-0.0034,-0.0028,0.0013,-0.0024,-0.0012,-0.008,-0.0103,-0.0157,-0.0179,-0.0376,-0.0245,-0.0486,-0.0569,-0.0583,-0.0596,0,0,0,0,0,0,-0.0109,-0.0096,-0.0076,-0.0064,-0.0058,-0.0047,-0.0034,-0.0019,-0.0001,0.0009,-0.002,-0.0035,-0.0097,-0.0055,-0.0163,-0.0178,-0.0342,-0.0275,-0.0277,-0.056,-0.0573,-0.0585,-0.0604,0,0,0,0,0]}]]